Tracking 29892 objects as of 21-Nov-2024
HD Live streaming from Space Station
objects crossing your sky now

H-2A DEB

Track H-2A DEB now!
10-day predictions


NORAD ID: 43069
Int'l Code: 2017-082E
Perigee: 713.8 km
Apogee: 752.5 km
Inclination: 98.3 °
Period: 99.3 minutes
Semi major axis: 7104 km
RCS: Unknown
Launch date: December 23, 2017
Source: Japan (JPN)
Launch site: TANEGASHIMA SPACE CENTER (TNSTA)

Note: This is SATELLITE DEBRIS
Your satellite tracking list
Your tracking list is empty




NASA's NSSDC Master Catalog

Two Line Element Set (TLE):
1 43069U 17082E   24325.12561438  .00009443  00000-0  24409-2 0  9997
2 43069  98.3063  27.6976 0027259 103.9226 256.5003 14.49893010363303
Source of the keplerian elements: AFSPC